sat.trackr.live / text

‹ back to catalog

2023-091F

NORAD 57171 · 2023-091F

PAYLOAD ACTIVE UNKNOWN

§ Identity

Operator
Country
CIS
Launch date
2023-06-27
Launch site
VOSTO
Launch vehicle
Mass (kg)
RCS (m²)

External: N2YO · Heavens-Above · Gunter

§ Orbital elements

Epoch: 2026-09-21T21:53:34.322784Z

Period
94.40 min
Inclination
97.5016°
Eccentricity
0.0011903
Mean motion
15.25485748 rev/d
Perigee alt
481.2 km
Apogee alt
497.5 km
Semi-major
6,867.5 km
B*
2.1852e-4
RAAN
326.7193°
Arg perigee
128.1531°
Mean anomaly
232.0782°
Rev number
17,890

§ Raw data

2023-091F1 57171U 23091F   26264.91220281  .00005469  00000+0  21852-3 0  99952 57171  97.5016 326.7193 0011903 128.1531 232.0782 15.25485748178905

JSON: /api/v1/satellites/57171 · /tle

For live sub-satellite position, see the globe view (requires WebGL).

§ Visibility from observer

Set your observer location to see the next 7 days of passes ≥ 10°. The values pass through the URL so the page stays shareable.

No JS? Fill the form by hand. The geolocation button needs JavaScript.